Regional Weather Roundup
Issued by NWS

Home | Current Version | Previous Version | Graphics & Text | Print | Product List | Glossary On
Versions: 1 2 3 4 5 6 7 8 9 10 11 12 13 14 15 16 17 18 19 20 21 22 23 24 25 26 27 28 29 30 31 32 33 34 35 36 37 38 39 40 41 42 43 44 45 46 47 48 49 50
838
ASUS43 KMKX 010400
RWRWI

WISCONSIN REGIONAL WEATHER ROUNDUP
NATIONAL WEATHER SERVICE MILWAUKEE/SULLIVAN WI
1100 PM CDT TUE MAY 31 2016

NOTE: "FAIR" INDICATES FEW OR NO CLOUDS BELOW 12,000 FEET WITH NO
SIGNIFICANT WEATHER AND/OR OBSTRUCTIONS TO VISIBILITY.

WIZ001-002-006>008-014>016-023>028-010500-
NORTHWEST WISCONSIN

CITY           SKY/WX    TMP DP  RH WIND       PRES   REMARKS
SUPERIOR ARPT  CLOUDY    42  41  97 E5        29.90F
ASHLAND        CLOUDY    47  47 100 CALM      29.88S FOG
HAYWARD        CLOUDY    62  57  83 S3        29.87F
SIREN          CLOUDY    62  61  95 S5        29.86S
CUMBERLAND     CLOUDY    61  59  94 S6        29.88S
RICE LAKE      CLOUDY    61  59  93 S5        29.90S
CHETEK         CLOUDY    60  60 100 SE5       29.89S
LADYSMITH      CLOUDY    61  60  97 SE3       29.90S
EAU CLAIRE     NOT AVBL
MENOMONIE      CLOUDY    63  63  99 SE3       29.89S
NEW RICHMOND   CLOUDY    62  61  96 SE5       29.88R
OSCEOLA        CLOUDY    63  63 100 SE8       29.89S
$$

WIZ003>005-009-010-017-018-010500-
NORTH CENTRAL WISCONSIN

CITY           SKY/WX    TMP DP  RH WIND       PRES   REMARKS
MANITOWISH WTR RAIN      58  58 100 SE5       29.91F
ARBOR VITAE    LGT RAIN  59  57  93 SE10      29.92F
WOODRUFF       LGT RAIN  59  57  93 SE10      29.92F
RHINELANDER    LGT RAIN  59  55  87 SE9       29.94F
EAGLE RIVER    LGT RAIN  59  51  76 SE8       29.94F
LAND O LAKES   LGT RAIN  60  53  77 SE7       29.95F
PHILLIPS       DRIZZLE   59  59 100 SE3       29.90S
TOMAHAWK       RAIN      59  58  95 SE3       29.93S
MEDFORD        RAIN      60  60 100 SE10      29.91S
MERRILL        HVY RAIN  62  62 100 S5        29.94S
$$

WIZ029-030-035-036-043>047-010500-
CENTRAL WISCONSIN

CITY           SKY/WX    TMP DP  RH WIND       PRES   REMARKS
WAUSAU         LGT RAIN  63  61  93 S12       29.92S
MOSINEE        RAIN      61  61 100 S10       29.96R
MARSHFIELD     RAIN      62  59  90 SE7       29.92F
STEVENS POINT  LGT RAIN  61  60  99 S5        29.96R
WAUPACA        CLOUDY    67  62  85 SE5       29.95R
WAUTOMA        CLOUDY   N/A N/A N/A CALM      29.95R
WISC RAPIDS    RAIN      61  59  93 SE5       29.95F
CAMP DOUGLAS   NOT AVBL
$$

WIZ011>013-019>022-031-037>040-048>050-010500-
NORTHEAST WISCONSIN

CITY           SKY/WX    TMP DP  RH WIND       PRES   REMARKS
ANTIGO         LGT RAIN  58  56  94 SE12      29.96S
SHAWANO        CLOUDY    63  57  82 E3        29.97R
OCONTO         MOCLDY    58  58 100 SE3       29.95S
STURGEON BAY   CLOUDY    61  50  67 E8        29.98S
GREEN BAY      CLOUDY    59  53  80 E5        29.95F
MANITOWOC      NOT AVBL
APPLETON       CLOUDY    63  55  77 VRB5      29.95R
CLINTONVILLE   CLOUDY    63  57  82 E6        29.95R
OSHKOSH        CLOUDY    65  59  81 SE8       29.95R
$$

WIZ032>034-041-042-053>061-010500-
SOUTHWEST WISCONSIN

CITY           SKY/WX    TMP DP  RH WIND       PRES   REMARKS
LA CROSSE      CLOUDY    64  64 100 CALM      29.90R
SPARTA         RAIN      62  62 100 E3        29.91F
VIROQUA        CLOUDY    62  62 100 SE8       29.92F
BOSCOBEL       NOT AVBL
PRAIRIE DU CHI RAIN      64  62  96 CALM      29.92R
PLATTEVILLE    CLOUDY    65  63  91 N6        29.95R
$$

WIZ056-057-062-063-064-067-068-010500-
SOUTH CENTRAL WISCONSIN

CITY           SKY/WX    TMP DP  RH WIND       PRES   REMARKS
REEDSBURG      HVY RAIN  64  63  97 W8        29.95R
BARABOO/DELLS  CLOUDY    65  60  81 W7        29.95R
LONE ROCK      TSTM      64  62  93 CALM      29.95F
MINERAL POINT  LGT RAIN  66  63  88 CALM      29.96R
MADISON        CLOUDY    66  61  84 S8        29.93S
MIDDLETON      CLOUDY    67  60  78 S6        29.95R
WATERTOWN      MOCLDY    64  64 100 SE3       29.95R
MONROE         DRIZZLE   64  61  88 SE12      29.95R
JANESVILLE     CLOUDY    66  61  82 S6        29.95
$$

WIZ051-052-058>065-066-070>072-010500-
SOUTHEAST WISCONSIN

CITY           SKY/WX    TMP DP  RH WIND       PRES   REMARKS
MILWAUKEE      CLOUDY    60  55  83 SE7       29.97R
WAUKESHA       CLOUDY    63  59  88 SE5       29.98R
MILWAUKEE/TIMM CLOUDY    61  52  72 SE3       29.98R
RACINE         CLOUDY    61  55  81 SE6       29.99R
BURLINGTON     CLOUDY    62  61  97 CALM      29.97R
KENOSHA        CLOUDY    63  59  87 E6        29.99R
FOND DU LAC    CLOUDY    64  59  83 S9        29.95R
SHEBOYGAN      CLOUDY    56  51  84 CALM      29.97S
WEST BEND      CLOUDY    55  52  88 CALM      29.98R
JUNEAU         PTCLDY    64  60  88 SE5       29.96S
$$

LSZ147-162-010500-
LAKE SUPERIOR

STATION/POSITION TIME  TEMP    WIND        PRES    WAVE
                       AIR SEA DIR/SP/G            HT/PER
                 (UTC) (F)     (DEG/KT/KT) (MB)    (FT/S)
W MID LAKE BUOY  0250   42 38   60/ 10/ 14 1013.3R   3/ 5
DEVILS ISLAND    0300   43      60/ 13/ 14 1012.4F
SAXON HARBOR     0340   49     300/  3/  7 1010.8F
$$

LMZ867-665-643>646-010500-
LAKE MICHIGAN

STATION/POSITION TIME  TEMP    WIND        PRES    WAVE
                       AIR SEA DIR/SP/G            HT/PER
                 (UTC) (F)     (DEG/KT/KT) (MB)    (FT/S)
CHAMBERS ISLAND  0300   63      CALM  /  5 1015.2S
N MID LAKE BUOY  0250   55 48   80/ 14/ 14 1014.9F   1
NORTHPORT PIER   0300   58     130/  3/  6 1015.6S
SISTER BAY       0320   59     130/  8/ 12   N/A
ALGOMA LAKESHORE 0317             CALM       N/A
KEWAUNEE LAKESHO 0300                      1014.3F
SHEBOYGAN LAKESH 0300   52     100/  2/  2 1015.3R
PORT WASHINGTON  0300   55      20/  3/  5 1015.6
S MID LAKE BUOY  0250   58 55   90/ 12/ 14 1014.3F   1/ 4
KENOSHA   LAKESH 0300   59     110/  5/  8 1014.6R
$$

TC  - TEMPERATURE IN CELSIUS
VSB - VISIBILITY IN STATUTE MILES
WCI - WIND CHILL INDEX
HX  - HEAT INDEX





USA.gov is the U.S. government's official web portal to all federal, state and local government web resources and services.